sat.trackr.live / text

‹ back to catalog

STARLINK-37067

NORAD 68086 · 2026-042T

PAYLOAD ACTIVE UNKNOWN

§ Identity

Operator
Country
US
Launch date
2026-03-04
Launch site
AFETR
Launch vehicle
Mass (kg)
RCS (m²)

Purposes: comms

External: N2YO · Heavens-Above · Gunter

§ Orbital elements

Epoch: 2026-09-19T12:25:57.311616Z

Period
93.85 min
Inclination
53.1611°
Eccentricity
0.0002011
Mean motion
15.34428218 rev/d
Perigee alt
461.2 km
Apogee alt
464.0 km
Semi-major
6,840.8 km
B*
7.7581e-4
RAAN
352.5231°
Arg perigee
95.1208°
Mean anomaly
265.0024°
Rev number
3,206

§ Raw data

STARLINK-370671 68086U 26042T   26262.51802444  .00025950  00000+0  77581-3 0  99992 68086  53.1611 352.5231 0002011  95.1208 265.0024 15.34428218 32065

JSON: /api/v1/satellites/68086 · /tle

For live sub-satellite position, see the globe view (requires WebGL).

§ Visibility from observer

Set your observer location to see the next 7 days of passes ≥ 10°. The values pass through the URL so the page stays shareable.

No JS? Fill the form by hand. The geolocation button needs JavaScript.